Temp
22 22 23 25 26 25 24 24 26 26 25 22 22 22 22 22 22 23 24 24 24 25 26 26 26 26 25 24 24 23 23 23 23 24 26 26 25 24 24 24 24 24 25 25 25 26 26 27 27 28 29 29 29 29 29 29 29 29 29 29 30 30 29 29 29 29 29 28 29
21 22 24 28 29 27 25 25 26 26 25 23 23 22 22 22 23 23 23 23 25 25 25 26 26 25 24 23 24 23 23 22 22 23 24 24 23 23 24 24 24 24 25 25 24 25 27 26 27 27 28 29 28 28 28 29 28 28 28 28 29 30 30 29 29 29 29 29 29
21 22 22 23 23 22 22 22 22 21 20 21 22 22 22 23 23 24 24 24 24 24 24 26 25 24 24 23 23 23 22 22 22 22 23 23 23 23 24 24 24 24 25 25 24 25 26 25 27 28 28 28 27 27 27 27 28 27 27 27 28 29 29 29 29 29 29 29 28
21 21 20 20 20 20 20 22 20 19 19 21 20 21 22 23 24 24 24 23 23 23 24 24 24 24 24 24 23 22 22 24 24 24 23 23 23 23 23 23 23 23 24 24 24 24 24 24 27 28 27 26 25 26 26 27 27 27 27 27 28 28 28 28 28 28 28 28 27
20 20 20 20 20 19 19 19 19 19 19 21 21 22 22 23 23 23 23 24 24 24 24 23 24 24 24 24 23 22 22 23 27 26 23 22 23 23 23 23 23 23 23 23 23 24 24 24 27 27 27 26 26 26 26 25 25 26 26 27 27 27 27 27 27 27 27 27 26
20 20 19 19 19 19 19 19 19 19 19 21 21 21 21 23 24 23 23 24 23 23 23 25 26 27 26 24 22 22 22 22 23 23 22 22 23 23 23 23 23 23 23 23 23 23 24 24 27 27 27 27 26 25 25 24 25 25 25 25 26 27 27 26 27 27 26 25 24
20 20 19 19 18 19 19 18 18 18 19 19 19 20 20 21 21 21 22 23 23 23 24 27 27 26 24 22 22 22 22 22 22 22 22 22 22 23 23 23 23 22 22 22 22 23 24 24 26 27 28 28 28 26 25 24 24 24 24 24 25 26 25 25 25 25 24 23 22
20 20 20 19 19 19 19 19 19 19 19 20 20 19 19 20 20 20 21 22 22 23 25 26 24 22 21 21 21 21 22 21 22 22 22 22 22 22 22 22 22 22 22 22 22 23 23 25 26 26 26 27 27 26 25 24 23 22 22 22 24 24 24 24 23 23 23 22 21
19 20 20 20 19 19 19 19 19 19 19 20 19 19 20 20 20 20 21 22 23 24 24 23 22 22 21 21 21 21 21 21 21 21 22 22 22 22 22 23 22 22 22 22 22 22 22 25 26 26 26 26 26 26 25 23 22 21 21 22 23 23 23 23 22 22 21 21 20
20 20 19 19 19 19 20 19 19 19 19 19 19 19 21 25 24 22 21 23 24 24 23 22 22 21 21 21 21 21 21 21 21 21 21 22 23 22 22 22 22 22 22 21 22 22 22 24 25 25 25 25 24 24 23 22 21 20 20 22 22 22 21 22 21 21 20 20 19
20 20 20 20 20 21 21 18 19 19 19 19 19 19 20 23 23 23 23 23 22 22 21 21 21 21 20 20 20 21 21 21 22 21 21 21 22 22 22 22 21 21 21 21 22 22 23 24 24 24 23 24 24 23 23 22 21 20 20 21 21 20 20 20 20 20 20 20 19
20 20 20 20 20 20 20 19 19 19 20 19 19 19 19 19 20 21 22 22 21 21 21 21 21 20 20 20 20 21 22 21 21 21 21 21 21 21 21 21 20 20 20 21 21 22 23 23 23 23 23 23 24 24 23 21 20 19 19 19 19 19 19 19 19 20 20 19 18
21 21 21 20 20 20 19 19 19 19 19 19 19 19 19 19 20 21 22 20 20 20 21 21 21 21 20 20 20 21 21 21 21 22 22 22 21 21 20 21 20 20 20 21 21 22 23 23 22 22 22 22 23 23 23 21 20 19 19 19 19 19 19 19 19 19 19 18 18
21 21 21 20 20 20 19 19 19 19 19 18 18 18 19 19 20 22 21 20 20 20 20 20 22 22 22 21 21 21 21 21 21 21 21 22 22 21 20 21 21 21 21 22 21 21 22 22 22 22 21 22 22 23 22 21 20 19 19 19 19 19 19 19 19 19 18 18 18
21 21 21 20 20 20 19 19 19 19 19 18 18 18 18 19 20 22 22 20 20 20 20 20 21 22 22 22 21 21 21 21 21 21 21 21 21 21 20 21 21 21 21 22 22 21 21 21 21 21 21 21 22 22 22 22 21 20 19 19 20 20 20 20 19 19 18 18 17
21 21 21 20 20 20 19 19 19 19 19 18 18 18 18 18 20 21 22 20 20 20 20 19 20 20 21 22 22 22 21 21 21 21 20 20 20 20 21 21 21 21 21 21 21 22 22 22 22 22 21 21 22 22 22 22 21 20 20 20 21 21 20 20 20 20 19 18 18
21 21 21 20 20 20 19 19 19 19 19 18 18 18 18 19 19 21 22 23 21 20 20 20 20 20 20 22 23 22 21 21 21 21 20 20 20 20 21 21 22 22 21 21 21 21 22 22 22 22 22 21 22 22 22 21 21 21 21 21 22 22 21 22 22 21 19 18 18
21 21 21 20 20 20 19 19 19 19 18 18 18 18 18 19 19 20 22 23 21 20 20 20 20 20 20 20 21 21 22 21 21 21 21 20 20 20 21 21 22 22 21 20 21 21 21 22 22 22 22 22 22 22 22 21 21 21 21 22 22 22 22 22 22 21 20 18 19
22 21 21 20 20 20 20 20 20 19 19 18 18 18 19 19 19 19 19 20 21 21 20 20 20 20 20 20 20 21 22 22 21 21 21 20 20 21 21 21 22 22 21 20 20 21 21 22 22 22 22 22 22 22 22 22 22 22 22 22 22 22 22 22 21 21 20 19 18
22 22 21 21 21 20 20 21 20 19 19 18 18 18 18 18 18 18 18 18 20 20 20 19 20 20 20 20 20 20 21 22 21 21 21 21 21 21 21 22 22 22 21 20 20 20 21 21 22 22 22 22 23 23 23 22 22 22 22 22 22 21 21 22 22 21 20 19 17
22 22 22 21 21 20 20 20 19 19 19 18 18 18 18 18 18 18 18 19 20 20 19 19 19 19 19 20 20 20 21 23 22 22 22 22 22 22 22 23 22 22 22 20 20 20 20 21 21 22 22 23 23 23 23 23 23 23 22 22 22 22 21 21 21 21 20 19 18
22 22 22 21 21 20 20 19 19 19 19 18 18 18 18 18 18 18 19 19 20 20 19 19 19 19 19 20 20 20 21 23 23 22 23 23 23 23 23 24 22 22 21 20 20 20 20 20 21 21 22 23 23 24 25 25 24 24 23 22 22 22 21 21 21 20 20 19 18
22 22 21 21 20 21 22 21 19 19 18 18 18 18 18 18 18 18 18 18 20 20 19 19 19 19 19 20 20 20 21 22 22 23 23 23 23 23 23 23 21 21 21 21 20 20 20 21 21 22 23 24 25 25 26 26 25 25 24 23 22 22 21 21 21 20 19 19 19
23 22 21 21 20 20 21 20 19 18 18 18 18 18 18 18 18 18 18 18 18 18 19 20 20 20 20 20 20 20 21 21 22 22 22 23 23 22 22 22 21 21 21 22 23 24 25 26 26 26 27 28 28 27 26 25 24 24 24 23 22 21 21 21 20 20 19 19 19
22 22 22 20 20 19 19 19 19 18 18 18 18 18 18 18 18 18 18 18 18 18 18 19 19 19 20 20 20 20 21 21 21 22 22 22 22 22 22 22 23 22 22 24 29 33 34 34 33 32 31 31 30 29 27 24 23 23 24 23 23 22 21 21 21 20 20 20 20
21 21 21 20 20 19 19 19 19 18 18 18 18 18 18 18 19 19 19 19 19 19 19 18 19 20 22 22 21 21 21 21 21 21 21 21 21 21 22 23 23 22 23 27 32 35 36 37 38 36 34 32 31 30 28 25 24 24 23 23 23 22 22 22 22 22 22 22 22
21 21 21 20 19 19 19 18 18 18 18 18 18 18 18 18 19 19 18 18 19 19 18 18 18 22 24 22 21 20 21 22 21 21 20 21 21 21 22 23 23 22 24 29 34 36 37 38 38 38 36 33 32 31 30 28 26 24 24 23 23 23 22 22 22 23 24 24 23
21 21 20 19 19 19 18 18 18 18 18 18 18 18 18 19 18 18 18 19 19 18 18 18 20 21 22 21 20 20 20 20 21 21 21 21 21 22 22 23 23 24 27 33 35 37 37 38 38 39 38 36 34 32 32 30 28 26 25 24 24 23 23 23 24 24 24 24 24
21 21 20 20 19 18 18 18 18 18 18 18 18 18 19 19 19 19 19 19 19 19 19 20 21 21 20 20 20 20 20 20 21 21 22 21 22 22 22 23 23 26 30 35 36 37 37 38 38 39 39 39 36 35 34 32 29 27 26 25 25 25 25 25 25 26 25 25 25
21 21 20 20 19 18 18 18 19 19 19 19 19 19 19 19 19 19 19 19 19 19 20 21 20 20 19 19 19 20 20 20 21 21 21 20 21 22 23 25 24 26 30 34 36 37 37 38 39 39 39 40 38 36 34 32 30 29 29 28 27 27 26 26 26 26 27 27 26
20 20 20 20 19 18 18 18 19 19 19 19 19 19 19 19 19 19 19 19 20 21 22 21 20 19 19 19 19 19 20 20 20 20 20 20 22 24 24 24 23 25 29 34 36 37 38 38 39 39 40 40 38 36 34 33 31 30 29 29 29 28 28 28 28 27 27 27 27
20 20 20 20 19 19 18 18 19 19 19 19 19 19 19 19 19 19 20 21 21 22 21 21 19 19 19 19 19 19 19 20 20 21 22 22 22 22 23 24 23 25 30 34 36 37 38 39 39 40 40 40 39 37 34 32 30 29 29 29 29 29 28 28 28 28 28 28 28
20 19 20 20 19 19 19 19 19 19 19 19 19 19 19 19 19 20 20 21 22 21 20 20 19 19 19 19 19 20 20 20 21 23 24 25 24 23 23 25 24 27 32 35 37 38 38 39 39 40 40 40 39 36 34 31 30 30 30 30 30 30 30 29 29 29 28 28 28
20 20 20 20 20 20 19 19 19 19 19 19 19 20 20 20 20 20 21 22 22 21 20 20 20 20 20 20 20 20 21 24 23 22 22 22 22 22 23 24 26 29 33 36 37 38 38 39 39 40 40 40 38 36 33 31 30 30 30 30 30 31 30 30 29 29 29 28 28
20 20 20 20 20 20 20 19 19 19 19 19 20 20 20 20 20 20 21 23 23 22 21 20 20 19 19 19 19 20 21 22 22 22 22 22 22 23 24 25 26 30 34 36 37 38 38 39 40 40 40 40 37 35 33 31 30 30 30 30 30 31 31 30 30 30 29 29 29
21 21 20 20 20 20 20 20 20 20 20 20 20 20 20 20 20 20 22 25 24 23 21 20 20 19 19 19 19 20 22 21 21 22 22 23 23 23 23 24 25 29 33 36 37 38 38 39 40 40 40 38 36 35 33 32 32 31 31 31 31 31 31 31 31 30 30 29 29
21 21 21 21 21 21 21 20 20 20 20 20 20 20 20 20 20 20 22 24 22 21 20 20 20 19 20 20 20 20 21 21 21 22 23 25 24 24 24 25 25 28 32 35 37 38 38 39 39 40 39 37 36 35 34 33 33 32 32 31 32 32 32 32 31 31 30 30 30
22 22 22 21 21 21 21 21 21 20 20 21 21 21 20 20 20 21 22 24 22 21 20 20 19 19 20 20 20 21 21 21 22 22 23 24 24 24 24 25 25 28 31 35 36 37 38 39 39 39 39 37 36 35 34 33 33 32 32 32 32 32 31 32 32 31 31 31 33
22 22 22 22 22 22 22 21 21 21 21 21 21 21 21 21 21 21 23 25 22 21 20 20 20 20 20 21 22 22 21 21 22 23 23 23 24 26 27 27 27 28 31 34 36 37 38 38 39 40 39 38 36 35 34 33 32 32 32 32 32 31 31 32 32 31 31 31 34
23 23 23 22 22 22 22 22 22 22 22 22 22 21 21 21 22 23 24 24 22 21 21 20 20 20 21 24 23 22 21 21 21 22 23 24 26 29 31 29 27 27 29 33 35 36 37 38 39 40 40 38 36 35 34 32 32 31 31 32 31 31 31 31 31 31 30 30 32
24 24 23 23 23 23 23 23 23 23 23 23 22 22 23 24 24 23 23 22 21 21 21 21 20 20 21 24 24 22 21 21 22 22 23 25 27 29 30 28 26 25 27 30 34 36 37 38 39 40 40 38 36 34 33 32 31 31 31 31 31 31 31 30 30 30 29 29 29
MSLP
1030.08 1030.16 1030.20 1030.20 1030.24 1030.32 1030.36 1030.44 1030.40 1030.40 1030.44 1030.52 1030.60 1030.64 1030.60 1030.64 1030.64 1030.64 1030.60 1030.60 1030.60 1030.56 1030.48 1030.40 1030.36 1030.28 1030.20 1030.08 1030.08 1030.04 1030.00 1029.92 1029.84 1029.72 1029.60 1029.52 1029.48 1029.40 1029.32 1029.20 1029.12 1029.08 1029.00 1028.92 1028.80 1028.72 1028.60 1028.44 1028.36 1028.20 1028.00 1027.76 1027.60 1027.40 1027.20 1027.00 1026.84 1026.64 1026.40 1026.24 1026.04 1025.76 1025.48 1025.20 1024.92 1024.64 1024.40 1024.20 1024.04
1029.96 1030.00 1030.00 1030.00 1030.04 1030.12 1030.24 1030.28 1030.28 1030.28 1030.28 1030.36 1030.36 1030.40 1030.44 1030.44 1030.48 1030.48 1030.48 1030.44 1030.36 1030.32 1030.28 1030.20 1030.16 1030.12 1030.08 1029.96 1029.88 1029.84 1029.84 1029.76 1029.72 1029.64 1029.52 1029.48 1029.36 1029.28 1029.20 1029.08 1029.00 1028.92 1028.84 1028.76 1028.68 1028.60 1028.48 1028.36 1028.20 1028.08 1027.92 1027.68 1027.48 1027.28 1027.08 1026.92 1026.76 1026.56 1026.36 1026.20 1025.96 1025.72 1025.44 1025.16 1024.84 1024.60 1024.36 1024.16 1023.96
1029.80 1029.84 1029.92 1029.96 1030.00 1030.12 1030.20 1030.20 1030.20 1030.24 1030.24 1030.24 1030.20 1030.20 1030.24 1030.28 1030.28 1030.28 1030.28 1030.20 1030.20 1030.20 1030.16 1030.08 1030.04 1029.96 1029.92 1029.84 1029.76 1029.72 1029.68 1029.64 1029.56 1029.48 1029.44 1029.36 1029.24 1029.16 1029.08 1028.96 1028.88 1028.76 1028.68 1028.64 1028.56 1028.48 1028.36 1028.24 1028.12 1027.96 1027.76 1027.60 1027.40 1027.24 1027.04 1026.80 1026.64 1026.52 1026.36 1026.16 1025.92 1025.68 1025.44 1025.16 1024.84 1024.60 1024.36 1024.16 1023.96
1029.64 1029.76 1029.84 1029.92 1029.96 1030.04 1030.08 1030.08 1030.12 1030.16 1030.16 1030.12 1030.08 1030.08 1030.12 1030.12 1030.08 1030.08 1030.08 1030.08 1030.08 1030.08 1030.04 1029.96 1029.92 1029.80 1029.72 1029.68 1029.64 1029.60 1029.52 1029.48 1029.40 1029.36 1029.28 1029.20 1029.12 1029.04 1028.92 1028.84 1028.76 1028.64 1028.60 1028.48 1028.44 1028.32 1028.20 1028.12 1027.96 1027.84 1027.68 1027.52 1027.36 1027.20 1026.96 1026.76 1026.60 1026.48 1026.32 1026.08 1025.88 1025.64 1025.40 1025.12 1024.84 1024.64 1024.40 1024.20 1024.04
1029.52 1029.60 1029.64 1029.72 1029.76 1029.80 1029.84 1029.92 1029.96 1030.00 1030.00 1030.00 1030.00 1030.00 1029.96 1029.96 1029.96 1029.96 1029.96 1029.96 1029.92 1029.88 1029.80 1029.80 1029.76 1029.64 1029.56 1029.52 1029.48 1029.48 1029.40 1029.36 1029.20 1029.16 1029.16 1029.12 1029.00 1028.92 1028.80 1028.72 1028.64 1028.56 1028.48 1028.36 1028.28 1028.20 1028.08 1028.00 1027.84 1027.72 1027.56 1027.44 1027.24 1027.08 1026.92 1026.76 1026.60 1026.44 1026.20 1026.04 1025.84 1025.64 1025.36 1025.08 1024.88 1024.64 1024.44 1024.24 1024.08
1029.40 1029.48 1029.52 1029.56 1029.60 1029.64 1029.68 1029.72 1029.76 1029.80 1029.84 1029.84 1029.92 1029.92 1029.88 1029.84 1029.84 1029.80 1029.80 1029.76 1029.76 1029.68 1029.64 1029.60 1029.52 1029.44 1029.36 1029.36 1029.36 1029.36 1029.28 1029.20 1029.12 1029.08 1029.04 1028.96 1028.88 1028.76 1028.64 1028.56 1028.48 1028.36 1028.32 1028.20 1028.16 1028.04 1027.92 1027.84 1027.72 1027.60 1027.44 1027.24 1027.08 1026.92 1026.76 1026.64 1026.52 1026.36 1026.20 1025.92 1025.76 1025.56 1025.36 1025.08 1024.92 1024.68 1024.48 1024.36 1024.16
1029.20 1029.32 1029.40 1029.44 1029.48 1029.52 1029.60 1029.60 1029.64 1029.64 1029.72 1029.72 1029.80 1029.84 1029.80 1029.76 1029.76 1029.72 1029.68 1029.64 1029.64 1029.56 1029.48 1029.36 1029.36 1029.32 1029.28 1029.28 1029.28 1029.20 1029.20 1029.08 1029.04 1028.96 1028.92 1028.84 1028.76 1028.64 1028.52 1028.44 1028.32 1028.24 1028.20 1028.08 1028.04 1027.92 1027.80 1027.72 1027.60 1027.44 1027.32 1027.12 1026.96 1026.76 1026.64 1026.52 1026.44 1026.32 1026.12 1025.92 1025.68 1025.48 1025.28 1025.08 1024.92 1024.72 1024.56 1024.36 1024.16
1029.08 1029.12 1029.20 1029.24 1029.28 1029.36 1029.44 1029.48 1029.52 1029.56 1029.60 1029.60 1029.64 1029.64 1029.64 1029.64 1029.60 1029.56 1029.48 1029.48 1029.44 1029.40 1029.36 1029.24 1029.20 1029.20 1029.20 1029.20 1029.16 1029.12 1029.08 1029.00 1028.92 1028.84 1028.76 1028.68 1028.64 1028.52 1028.40 1028.32 1028.20 1028.12 1028.04 1027.96 1027.92 1027.80 1027.68 1027.56 1027.44 1027.32 1027.20 1027.08 1026.92 1026.68 1026.48 1026.40 1026.32 1026.20 1026.04 1025.80 1025.60 1025.36 1025.20 1025.08 1024.92 1024.76 1024.56 1024.36 1024.12
1028.92 1028.96 1029.00 1029.08 1029.12 1029.20 1029.24 1029.32 1029.36 1029.40 1029.48 1029.48 1029.48 1029.48 1029.44 1029.40 1029.40 1029.36 1029.36 1029.32 1029.20 1029.16 1029.16 1029.12 1029.08 1029.08 1029.08 1029.04 1029.00 1028.96 1028.92 1028.84 1028.76 1028.68 1028.64 1028.56 1028.48 1028.36 1028.28 1028.20 1028.08 1028.00 1027.92 1027.80 1027.76 1027.68 1027.60 1027.44 1027.28 1027.16 1027.04 1026.92 1026.76 1026.60 1026.36 1026.24 1026.20 1026.08 1025.92 1025.72 1025.48 1025.24 1025.08 1024.96 1024.84 1024.68 1024.48 1024.32 1024.12
1028.76 1028.84 1028.88 1028.92 1029.00 1029.08 1029.08 1029.16 1029.20 1029.28 1029.32 1029.36 1029.32 1029.28 1029.20 1029.16 1029.16 1029.12 1029.12 1029.08 1029.00 1029.00 1029.04 1029.00 1028.92 1028.92 1028.92 1028.92 1028.88 1028.80 1028.76 1028.72 1028.64 1028.56 1028.48 1028.40 1028.32 1028.24 1028.12 1028.04 1027.92 1027.88 1027.80 1027.68 1027.60 1027.52 1027.48 1027.36 1027.20 1027.04 1026.88 1026.72 1026.64 1026.48 1026.28 1026.16 1026.08 1025.92 1025.76 1025.56 1025.36 1025.20 1025.00 1024.80 1024.68 1024.56 1024.44 1024.24 1024.04
1028.56 1028.64 1028.72 1028.76 1028.84 1028.88 1028.96 1029.08 1029.12 1029.12 1029.16 1029.16 1029.16 1029.12 1029.08 1029.04 1029.00 1028.92 1028.88 1028.84 1028.92 1028.92 1028.92 1028.80 1028.80 1028.76 1028.76 1028.72 1028.72 1028.64 1028.56 1028.52 1028.48 1028.40 1028.32 1028.24 1028.16 1028.08 1027.96 1027.88 1027.80 1027.72 1027.64 1027.52 1027.44 1027.36 1027.28 1027.16 1027.08 1026.92 1026.72 1026.52 1026.44 1026.28 1026.12 1025.96 1025.88 1025.76 1025.60 1025.36 1025.24 1025.12 1024.92 1024.64 1024.52 1024.40 1024.32 1024.16 1023.96
1028.40 1028.48 1028.52 1028.60 1028.68 1028.76 1028.88 1028.92 1028.96 1029.00 1029.00 1029.00 1028.96 1028.96 1028.92 1028.92 1028.88 1028.76 1028.72 1028.76 1028.80 1028.76 1028.68 1028.64 1028.64 1028.64 1028.64 1028.56 1028.52 1028.48 1028.36 1028.36 1028.36 1028.28 1028.20 1028.08 1028.00 1027.92 1027.80 1027.72 1027.64 1027.56 1027.48 1027.36 1027.28 1027.20 1027.08 1027.00 1026.92 1026.76 1026.60 1026.40 1026.24 1026.12 1025.92 1025.76 1025.68 1025.60 1025.40 1025.20 1025.08 1024.96 1024.76 1024.48 1024.36 1024.20 1024.12 1024.00 1023.88
1028.24 1028.32 1028.36 1028.48 1028.52 1028.64 1028.72 1028.80 1028.84 1028.84 1028.88 1028.88 1028.84 1028.80 1028.76 1028.72 1028.64 1028.64 1028.64 1028.64 1028.64 1028.60 1028.52 1028.48 1028.48 1028.48 1028.48 1028.40 1028.36 1028.32 1028.28 1028.20 1028.20 1028.08 1028.00 1027.92 1027.84 1027.76 1027.64 1027.56 1027.48 1027.36 1027.32 1027.20 1027.12 1027.04 1026.92 1026.88 1026.76 1026.64 1026.48 1026.28 1026.08 1025.92 1025.76 1025.64 1025.52 1025.40 1025.28 1025.12 1024.92 1024.76 1024.60 1024.36 1024.20 1024.08 1023.92 1023.84 1023.72
1028.08 1028.16 1028.20 1028.32 1028.40 1028.48 1028.60 1028.64 1028.68 1028.68 1028.72 1028.72 1028.68 1028.64 1028.60 1028.56 1028.48 1028.48 1028.48 1028.48 1028.44 1028.40 1028.36 1028.36 1028.32 1028.24 1028.20 1028.20 1028.16 1028.12 1028.08 1028.04 1028.00 1027.92 1027.84 1027.76 1027.64 1027.56 1027.48 1027.36 1027.28 1027.20 1027.08 1027.00 1026.92 1026.88 1026.76 1026.68 1026.56 1026.44 1026.32 1026.12 1025.92 1025.72 1025.56 1025.44 1025.32 1025.20 1025.08 1024.96 1024.80 1024.64 1024.44 1024.20 1024.04 1023.92 1023.80 1023.68 1023.52
1027.92 1028.00 1028.08 1028.16 1028.24 1028.36 1028.40 1028.48 1028.48 1028.52 1028.56 1028.56 1028.52 1028.48 1028.44 1028.44 1028.36 1028.32 1028.28 1028.28 1028.24 1028.24 1028.24 1028.24 1028.20 1028.08 1028.00 1027.96 1028.00 1027.96 1027.92 1027.84 1027.84 1027.76 1027.72 1027.60 1027.48 1027.40 1027.28 1027.20 1027.08 1027.00 1026.92 1026.80 1026.76 1026.64 1026.56 1026.48 1026.36 1026.24 1026.12 1025.92 1025.76 1025.56 1025.36 1025.20 1025.08 1024.96 1024.84 1024.72 1024.60 1024.44 1024.24 1024.04 1023.88 1023.76 1023.64 1023.48 1023.36
1027.76 1027.84 1027.92 1027.96 1028.08 1028.20 1028.24 1028.32 1028.36 1028.36 1028.40 1028.36 1028.36 1028.32 1028.32 1028.24 1028.20 1028.16 1028.12 1028.08 1028.08 1028.08 1028.08 1028.08 1028.04 1027.96 1027.88 1027.80 1027.76 1027.76 1027.76 1027.72 1027.64 1027.64 1027.56 1027.44 1027.36 1027.20 1027.12 1027.00 1026.92 1026.80 1026.72 1026.64 1026.52 1026.44 1026.36 1026.24 1026.12 1026.04 1025.92 1025.76 1025.56 1025.36 1025.12 1024.92 1024.80 1024.68 1024.56 1024.48 1024.32 1024.16 1023.96 1023.80 1023.64 1023.52 1023.40 1023.24 1023.16
1027.60 1027.64 1027.72 1027.80 1027.92 1027.96 1028.08 1028.12 1028.12 1028.20 1028.20 1028.20 1028.20 1028.16 1028.12 1028.08 1028.08 1028.00 1027.92 1027.92 1027.92 1027.92 1027.92 1027.88 1027.84 1027.80 1027.72 1027.64 1027.60 1027.60 1027.60 1027.56 1027.48 1027.44 1027.36 1027.28 1027.16 1027.08 1026.92 1026.84 1026.72 1026.60 1026.48 1026.44 1026.36 1026.24 1026.12 1026.00 1025.88 1025.76 1025.64 1025.48 1025.32 1025.12 1024.92 1024.72 1024.60 1024.44 1024.28 1024.16 1024.00 1023.80 1023.64 1023.48 1023.36 1023.28 1023.16 1023.04 1022.88
1027.44 1027.48 1027.52 1027.60 1027.72 1027.76 1027.84 1027.92 1027.96 1028.00 1028.04 1028.04 1028.04 1028.00 1027.96 1027.92 1027.92 1027.88 1027.80 1027.76 1027.76 1027.76 1027.76 1027.72 1027.64 1027.64 1027.56 1027.52 1027.48 1027.44 1027.40 1027.36 1027.28 1027.20 1027.16 1027.08 1026.96 1026.88 1026.76 1026.64 1026.48 1026.36 1026.28 1026.20 1026.12 1026.04 1025.92 1025.76 1025.64 1025.52 1025.40 1025.20 1025.04 1024.84 1024.64 1024.44 1024.32 1024.16 1024.00 1023.80 1023.64 1023.48 1023.36 1023.20 1023.04 1023.00 1022.92 1022.76 1022.60
1027.24 1027.32 1027.36 1027.40 1027.48 1027.52 1027.60 1027.68 1027.76 1027.76 1027.80 1027.84 1027.84 1027.80 1027.76 1027.76 1027.76 1027.76 1027.72 1027.68 1027.64 1027.60 1027.56 1027.56 1027.48 1027.44 1027.40 1027.36 1027.36 1027.24 1027.16 1027.16 1027.08 1027.00 1026.92 1026.84 1026.76 1026.64 1026.48 1026.40 1026.24 1026.12 1026.08 1026.00 1025.88 1025.76 1025.64 1025.52 1025.40 1025.28 1025.12 1024.96 1024.76 1024.52 1024.36 1024.16 1024.00 1023.84 1023.68 1023.48 1023.36 1023.20 1023.04 1022.88 1022.76 1022.64 1022.52 1022.40 1022.24
1027.04 1027.08 1027.12 1027.20 1027.24 1027.32 1027.40 1027.44 1027.52 1027.56 1027.60 1027.64 1027.64 1027.64 1027.64 1027.64 1027.64 1027.64 1027.60 1027.52 1027.44 1027.40 1027.40 1027.40 1027.36 1027.32 1027.20 1027.20 1027.16 1027.08 1026.96 1026.92 1026.92 1026.80 1026.68 1026.60 1026.48 1026.40 1026.28 1026.16 1026.04 1025.92 1025.84 1025.76 1025.64 1025.52 1025.40 1025.28 1025.20 1025.04 1024.92 1024.72 1024.48 1024.24 1024.04 1023.84 1023.68 1023.52 1023.36 1023.20 1023.04 1022.88 1022.72 1022.56 1022.44 1022.32 1022.20 1022.04 1021.88
1026.76 1026.80 1026.84 1026.92 1027.00 1027.08 1027.20 1027.24 1027.32 1027.36 1027.40 1027.44 1027.48 1027.48 1027.48 1027.48 1027.48 1027.48 1027.40 1027.36 1027.28 1027.24 1027.24 1027.24 1027.20 1027.16 1027.08 1027.00 1026.92 1026.88 1026.76 1026.68 1026.64 1026.60 1026.48 1026.40 1026.28 1026.16 1026.00 1025.92 1025.80 1025.68 1025.60 1025.48 1025.40 1025.28 1025.20 1025.08 1024.92 1024.76 1024.64 1024.40 1024.20 1023.92 1023.72 1023.52 1023.36 1023.20 1023.04 1022.88 1022.68 1022.52 1022.40 1022.28 1022.16 1022.04 1021.84 1021.64 1021.48
1026.48 1026.56 1026.64 1026.68 1026.76 1026.88 1026.96 1027.04 1027.08 1027.16 1027.20 1027.24 1027.32 1027.36 1027.36 1027.36 1027.32 1027.24 1027.20 1027.16 1027.12 1027.08 1027.08 1027.04 1027.00 1026.96 1026.92 1026.80 1026.76 1026.64 1026.52 1026.44 1026.40 1026.36 1026.24 1026.16 1026.04 1025.88 1025.76 1025.64 1025.56 1025.48 1025.36 1025.28 1025.16 1025.04 1024.92 1024.80 1024.68 1024.48 1024.32 1024.08 1023.84 1023.60 1023.36 1023.20 1023.00 1022.80 1022.64 1022.48 1022.36 1022.20 1022.08 1021.96 1021.84 1021.68 1021.48 1021.32 1021.12
1026.20 1026.32 1026.40 1026.48 1026.60 1026.64 1026.68 1026.76 1026.92 1026.96 1027.04 1027.08 1027.12 1027.20 1027.20 1027.16 1027.12 1027.08 1027.08 1027.04 1026.96 1026.92 1026.88 1026.84 1026.76 1026.72 1026.68 1026.60 1026.52 1026.48 1026.36 1026.28 1026.20 1026.08 1026.00 1025.92 1025.80 1025.64 1025.56 1025.48 1025.36 1025.32 1025.20 1025.08 1024.92 1024.80 1024.72 1024.52 1024.36 1024.12 1023.92 1023.68 1023.44 1023.20 1023.00 1022.80 1022.64 1022.48 1022.36 1022.20 1022.04 1021.88 1021.76 1021.64 1021.48 1021.36 1021.20 1020.96 1020.80
1026.00 1026.12 1026.20 1026.36 1026.44 1026.48 1026.52 1026.64 1026.72 1026.80 1026.88 1026.92 1026.96 1026.96 1027.00 1027.00 1026.96 1026.92 1026.92 1026.88 1026.80 1026.76 1026.72 1026.64 1026.60 1026.48 1026.44 1026.40 1026.36 1026.28 1026.20 1026.20 1026.04 1025.92 1025.76 1025.68 1025.56 1025.48 1025.36 1025.28 1025.20 1025.08 1024.96 1024.80 1024.64 1024.52 1024.36 1024.08 1023.84 1023.60 1023.36 1023.16 1022.92 1022.76 1022.60 1022.44 1022.32 1022.20 1022.08 1021.92 1021.76 1021.60 1021.48 1021.32 1021.16 1021.04 1020.88 1020.68 1020.48
1025.80 1025.92 1026.04 1026.20 1026.24 1026.32 1026.36 1026.44 1026.52 1026.64 1026.68 1026.76 1026.76 1026.80 1026.80 1026.80 1026.80 1026.76 1026.76 1026.72 1026.64 1026.60 1026.52 1026.48 1026.36 1026.32 1026.24 1026.20 1026.16 1026.08 1026.00 1025.92 1025.88 1025.76 1025.64 1025.48 1025.36 1025.28 1025.20 1025.08 1024.96 1024.84 1024.68 1024.52 1024.28 1024.00 1023.72 1023.48 1023.24 1023.04 1022.80 1022.64 1022.48 1022.36 1022.20 1022.08 1022.00 1021.88 1021.76 1021.60 1021.48 1021.32 1021.16 1020.96 1020.76 1020.64 1020.48 1020.28 1020.08
1025.64 1025.72 1025.84 1025.96 1026.04 1026.08 1026.20 1026.24 1026.36 1026.40 1026.48 1026.56 1026.64 1026.64 1026.64 1026.64 1026.64 1026.64 1026.60 1026.56 1026.48 1026.40 1026.36 1026.24 1026.20 1026.12 1026.08 1026.00 1025.92 1025.84 1025.76 1025.68 1025.64 1025.52 1025.44 1025.32 1025.20 1025.08 1024.96 1024.84 1024.68 1024.60 1024.48 1024.24 1023.92 1023.64 1023.36 1023.08 1022.80 1022.60 1022.44 1022.32 1022.16 1022.00 1021.88 1021.72 1021.60 1021.48 1021.40 1021.24 1021.12 1021.04 1020.88 1020.72 1020.48 1020.24 1020.04 1019.92 1019.76
1025.44 1025.52 1025.64 1025.72 1025.80 1025.92 1026.00 1026.08 1026.16 1026.24 1026.36 1026.36 1026.44 1026.48 1026.48 1026.48 1026.48 1026.48 1026.44 1026.36 1026.32 1026.20 1026.12 1026.08 1026.04 1025.92 1025.80 1025.76 1025.72 1025.68 1025.60 1025.48 1025.40 1025.32 1025.20 1025.12 1025.00 1024.88 1024.72 1024.56 1024.44 1024.36 1024.20 1023.92 1023.64 1023.32 1023.04 1022.76 1022.48 1022.28 1022.12 1022.00 1021.84 1021.64 1021.48 1021.36 1021.20 1021.08 1021.00 1020.88 1020.76 1020.68 1020.56 1020.40 1020.20 1020.00 1019.76 1019.60 1019.44
1025.20 1025.28 1025.36 1025.52 1025.64 1025.68 1025.76 1025.88 1025.96 1026.04 1026.12 1026.20 1026.20 1026.24 1026.28 1026.32 1026.36 1026.32 1026.24 1026.20 1026.12 1026.08 1026.00 1025.92 1025.80 1025.72 1025.64 1025.64 1025.56 1025.48 1025.36 1025.24 1025.20 1025.08 1025.00 1024.92 1024.80 1024.68 1024.48 1024.36 1024.20 1024.08 1023.84 1023.56 1023.28 1023.00 1022.76 1022.52 1022.28 1022.04 1021.80 1021.64 1021.48 1021.32 1021.12 1020.92 1020.76 1020.64 1020.56 1020.48 1020.40 1020.32 1020.20 1020.08 1019.92 1019.72 1019.56 1019.36 1019.20
1024.88 1025.04 1025.16 1025.32 1025.40 1025.48 1025.60 1025.72 1025.76 1025.84 1025.88 1025.96 1026.04 1026.08 1026.12 1026.16 1026.16 1026.12 1026.08 1026.04 1025.92 1025.88 1025.80 1025.72 1025.60 1025.52 1025.48 1025.48 1025.32 1025.20 1025.12 1025.08 1024.96 1024.92 1024.76 1024.68 1024.60 1024.48 1024.32 1024.12 1023.92 1023.76 1023.52 1023.24 1023.00 1022.76 1022.52 1022.32 1022.04 1021.76 1021.52 1021.32 1021.16 1020.96 1020.76 1020.56 1020.36 1020.24 1020.20 1020.12 1020.04 1019.92 1019.84 1019.72 1019.52 1019.40 1019.24 1019.08 1018.92
1024.64 1024.76 1024.92 1025.04 1025.16 1025.28 1025.36 1025.48 1025.52 1025.60 1025.68 1025.76 1025.84 1025.92 1025.96 1025.96 1025.96 1025.92 1025.88 1025.84 1025.76 1025.64 1025.56 1025.48 1025.40 1025.36 1025.36 1025.20 1025.12 1025.04 1024.92 1024.80 1024.72 1024.64 1024.60 1024.48 1024.40 1024.20 1024.00 1023.80 1023.68 1023.52 1023.32 1023.04 1022.80 1022.56 1022.32 1022.04 1021.76 1021.48 1021.20 1020.96 1020.80 1020.64 1020.44 1020.20 1020.04 1019.92 1019.84 1019.76 1019.64 1019.56 1019.48 1019.32 1019.16 1019.00 1018.88 1018.72 1018.60
1024.36 1024.48 1024.64 1024.76 1024.92 1025.08 1025.16 1025.20 1025.32 1025.40 1025.48 1025.60 1025.68 1025.76 1025.76 1025.80 1025.76 1025.68 1025.64 1025.60 1025.48 1025.36 1025.24 1025.20 1025.20 1025.20 1025.12 1025.00 1024.92 1024.84 1024.76 1024.64 1024.56 1024.48 1024.40 1024.32 1024.12 1023.92 1023.76 1023.60 1023.48 1023.32 1023.12 1022.84 1022.56 1022.28 1022.04 1021.76 1021.48 1021.20 1020.92 1020.68 1020.48 1020.28 1020.08 1019.92 1019.76 1019.72 1019.64 1019.48 1019.36 1019.20 1019.08 1018.96 1018.80 1018.64 1018.48 1018.36 1018.28
1024.12 1024.24 1024.36 1024.52 1024.64 1024.76 1024.88 1025.00 1025.12 1025.20 1025.32 1025.40 1025.48 1025.56 1025.56 1025.56 1025.48 1025.44 1025.36 1025.36 1025.24 1025.16 1025.12 1025.08 1025.08 1025.00 1024.92 1024.80 1024.76 1024.64 1024.56 1024.48 1024.36 1024.28 1024.16 1024.04 1023.92 1023.76 1023.56 1023.40 1023.28 1023.12 1022.92 1022.56 1022.28 1022.00 1021.76 1021.48 1021.20 1020.96 1020.68 1020.40 1020.20 1019.96 1019.80 1019.68 1019.60 1019.48 1019.44 1019.32 1019.12 1018.96 1018.80 1018.64 1018.48 1018.36 1018.20 1018.08 1018.00
1023.88 1024.00 1024.12 1024.24 1024.36 1024.48 1024.64 1024.76 1024.92 1025.00 1025.12 1025.20 1025.28 1025.32 1025.32 1025.28 1025.24 1025.20 1025.16 1025.08 1025.04 1024.96 1024.92 1024.92 1024.88 1024.80 1024.72 1024.64 1024.52 1024.40 1024.32 1024.20 1024.12 1024.00 1023.88 1023.76 1023.64 1023.52 1023.36 1023.20 1023.04 1022.88 1022.64 1022.28 1022.00 1021.76 1021.48 1021.20 1020.96 1020.72 1020.44 1020.16 1019.92 1019.76 1019.60 1019.48 1019.40 1019.32 1019.20 1019.00 1018.84 1018.64 1018.48 1018.36 1018.20 1018.08 1017.92 1017.80 1017.72
1023.64 1023.76 1023.88 1024.00 1024.12 1024.24 1024.44 1024.56 1024.68 1024.80 1024.92 1025.00 1025.04 1025.04 1025.04 1025.08 1025.04 1025.00 1024.92 1024.84 1024.76 1024.76 1024.72 1024.64 1024.60 1024.52 1024.48 1024.40 1024.32 1024.20 1024.08 1023.92 1023.88 1023.76 1023.68 1023.60 1023.52 1023.36 1023.20 1023.00 1022.80 1022.60 1022.36 1022.04 1021.76 1021.52 1021.24 1021.00 1020.76 1020.48 1020.20 1019.92 1019.68 1019.52 1019.40 1019.32 1019.20 1019.08 1018.92 1018.76 1018.56 1018.40 1018.28 1018.12 1017.96 1017.84 1017.68 1017.56 1017.48
1023.36 1023.48 1023.60 1023.72 1023.84 1024.00 1024.16 1024.36 1024.44 1024.56 1024.68 1024.72 1024.76 1024.76 1024.76 1024.80 1024.80 1024.76 1024.64 1024.56 1024.52 1024.48 1024.48 1024.44 1024.36 1024.32 1024.20 1024.16 1024.12 1024.08 1023.92 1023.76 1023.68 1023.60 1023.48 1023.40 1023.32 1023.16 1022.96 1022.76 1022.52 1022.32 1022.08 1021.84 1021.56 1021.28 1021.04 1020.76 1020.52 1020.28 1020.00 1019.72 1019.56 1019.40 1019.28 1019.12 1018.96 1018.80 1018.64 1018.52 1018.36 1018.20 1018.08 1017.88 1017.68 1017.52 1017.40 1017.36 1017.24
1023.04 1023.16 1023.28 1023.44 1023.56 1023.72 1023.92 1024.08 1024.20 1024.32 1024.40 1024.44 1024.48 1024.48 1024.48 1024.52 1024.48 1024.48 1024.44 1024.36 1024.32 1024.32 1024.24 1024.20 1024.16 1024.12 1024.08 1024.00 1023.92 1023.84 1023.72 1023.64 1023.52 1023.44 1023.32 1023.24 1023.12 1022.96 1022.76 1022.52 1022.28 1022.08 1021.84 1021.64 1021.36 1021.08 1020.84 1020.64 1020.36 1020.08 1019.84 1019.64 1019.44 1019.24 1019.04 1018.88 1018.72 1018.56 1018.44 1018.36 1018.16 1018.00 1017.80 1017.60 1017.44 1017.32 1017.24 1017.20 1017.16
1022.72 1022.84 1022.96 1023.12 1023.28 1023.44 1023.60 1023.76 1023.92 1024.04 1024.08 1024.08 1024.12 1024.20 1024.20 1024.24 1024.24 1024.24 1024.20 1024.16 1024.20 1024.16 1024.08 1024.04 1024.00 1023.96 1023.92 1023.80 1023.72 1023.64 1023.52 1023.44 1023.40 1023.28 1023.16 1023.04 1022.92 1022.76 1022.60 1022.36 1022.08 1021.88 1021.64 1021.44 1021.16 1020.92 1020.68 1020.44 1020.20 1019.96 1019.72 1019.48 1019.24 1019.04 1018.80 1018.64 1018.48 1018.36 1018.20 1018.08 1017.92 1017.76 1017.60 1017.48 1017.32 1017.24 1017.20 1017.12 1017.00
1022.40 1022.52 1022.68 1022.80 1022.96 1023.12 1023.32 1023.44 1023.56 1023.64 1023.72 1023.76 1023.76 1023.84 1023.92 1024.00 1024.04 1024.00 1023.96 1023.92 1023.92 1023.96 1023.92 1023.88 1023.84 1023.76 1023.68 1023.60 1023.48 1023.40 1023.32 1023.20 1023.20 1023.12 1023.00 1022.88 1022.76 1022.64 1022.44 1022.20 1021.92 1021.72 1021.48 1021.24 1021.00 1020.76 1020.56 1020.32 1020.08 1019.80 1019.56 1019.36 1019.04 1018.80 1018.60 1018.44 1018.32 1018.20 1018.08 1017.92 1017.72 1017.56 1017.48 1017.40 1017.28 1017.20 1017.12 1017.04 1016.76
1022.08 1022.24 1022.36 1022.48 1022.64 1022.80 1022.96 1023.12 1023.20 1023.32 1023.36 1023.44 1023.52 1023.60 1023.64 1023.72 1023.76 1023.76 1023.68 1023.64 1023.68 1023.72 1023.72 1023.68 1023.60 1023.52 1023.44 1023.36 1023.28 1023.20 1023.12 1023.04 1023.00 1022.92 1022.84 1022.76 1022.60 1022.40 1022.20 1022.00 1021.76 1021.56 1021.36 1021.12 1020.92 1020.68 1020.44 1020.20 1019.96 1019.64 1019.40 1019.16 1018.92 1018.68 1018.48 1018.32 1018.20 1018.08 1017.92 1017.72 1017.56 1017.48 1017.44 1017.36 1017.24 1017.16 1017.08 1016.96 1016.76
1021.76 1021.92 1022.08 1022.20 1022.32 1022.48 1022.64 1022.76 1022.88 1022.92 1023.04 1023.12 1023.24 1023.36 1023.36 1023.44 1023.44 1023.44 1023.44 1023.40 1023.48 1023.48 1023.48 1023.44 1023.40 1023.32 1023.24 1023.16 1023.12 1023.04 1022.96 1022.84 1022.80 1022.76 1022.64 1022.56 1022.40 1022.16 1021.92 1021.76 1021.64 1021.48 1021.28 1021.08 1020.88 1020.64 1020.36 1020.12 1019.80 1019.48 1019.24 1019.04 1018.76 1018.60 1018.40 1018.28 1018.16 1017.96 1017.76 1017.64 1017.52 1017.48 1017.48 1017.36 1017.28 1017.20 1017.08 1017.00 1016.80
1021.44 1021.60 1021.76 1021.88 1022.00 1022.12 1022.28 1022.40 1022.48 1022.64 1022.72 1022.88 1022.96 1023.04 1023.04 1023.12 1023.20 1023.20 1023.24 1023.28 1023.32 1023.28 1023.24 1023.20 1023.16 1023.12 1023.04 1022.96 1022.92 1022.92 1022.80 1022.72 1022.64 1022.56 1022.48 1022.36 1022.20 1022.04 1021.84 1021.72 1021.56 1021.40 1021.24 1021.04 1020.80 1020.52 1020.28 1019.96 1019.68 1019.40 1019.12 1018.92 1018.64 1018.48 1018.36 1018.20 1018.08 1017.88 1017.68 1017.60 1017.60 1017.56 1017.48 1017.40 1017.24 1017.16 1017.08 1017.04 1016.92
Wind_Speed
4 4 4 4 4 4 4 3 4 4 3 3 3 3 3 3 3 3 3 3 3 3 4 4 4 4 4 4 5 5 5 5 5 5 5 6 5 5 6 6 6 6 6 7 6 6 6 6 6 6 6 6 6 6 6 6 7 8 9 10 10 11 12 12 12 13 13 12 10
4 4 5 5 5 4 3 3 3 3 3 3 3 3 3 3 3 3 3 3 3 3 4 4 4 4 4 5 5 5 5 5 5 5 5 5 5 6 6 6 6 6 7 7 6 6 6 6 6 6 6 6 6 6 6 6 6 8 9 10 10 10 10 10 11 12 13 12 11
4 4 4 4 3 3 3 3 3 3 3 3 3 3 3 3 3 3 3 3 3 3 3 4 4 4 4 5 5 5 4 4 4 4 4 5 5 6 6 6 6 7 7 6 6 6 6 6 6 6 6 6 6 6 7 6 6 7 8 9 8 8 8 8 9 10 10 9 10
4 4 4 4 4 4 4 4 3 3 3 3 2 2 2 2 3 3 3 3 3 3 4 4 4 4 4 5 5 4 4 4 4 4 4 5 5 6 6 7 7 7 7 6 6 6 6 6 5 5 6 6 7 7 6 6 6 7 7 7 7 7 7 8 8 8 8 8 9
4 4 5 5 5 5 4 4 4 3 3 2 2 2 2 2 2 2 2 3 3 4 4 4 4 4 5 4 4 4 4 5 5 5 5 5 6 6 6 7 7 7 6 6 6 7 7 6 5 5 5 6 6 6 6 6 7 7 7 6 6 7 7 7 7 7 7 8 8
5 4 4 4 5 4 4 3 4 4 3 2 2 2 2 2 2 3 3 4 4 5 5 6 6 6 5 5 4 4 4 4 4 4 5 5 6 6 7 7 7 7 6 6 7 7 7 6 5 5 5 5 5 6 6 6 7 7 7 7 7 6 6 7 7 7 7 8 9
5 5 5 4 4 4 3 3 3 3 3 2 3 3 4 4 4 4 5 5 4 5 5 5 6 5 5 5 4 4 5 4 4 5 5 5 6 6 7 7 7 7 7 6 6 6 6 5 5 5 6 6 6 6 7 7 7 7 8 8 7 6 6 7 6 6 8 10 11
5 5 5 4 4 4 4 4 3 3 3 3 4 5 5 5 5 5 5 5 5 5 4 4 4 4 4 4 5 5 5 5 5 5 5 5 6 6 7 7 7 7 7 6 6 6 6 6 5 5 5 5 6 7 8 8 8 8 8 8 7 6 6 6 6 6 8 10 11
4 4 4 4 4 4 4 4 4 4 4 4 5 5 6 6 6 6 5 5 5 5 4 3 4 4 4 4 5 5 5 5 5 5 5 5 6 6 7 7 7 7 7 6 6 6 6 6 5 5 5 5 6 7 8 9 9 9 8 8 8 7 7 7 6 7 8 9 10
4 4 4 3 4 4 4 4 4 4 5 5 5 6 6 7 6 5 5 4 4 4 3 3 4 4 4 4 5 5 5 5 5 5 6 6 6 7 7 6 7 7 7 6 6 6 6 6 6 6 7 6 7 8 9 9 9 9 8 7 7 8 9 9 8 8 8 9 9
5 5 4 4 4 4 4 4 4 4 4 5 5 5 6 6 6 5 4 4 3 3 4 3 3 4 4 5 5 5 5 5 5 5 6 6 7 7 7 7 7 7 7 7 6 5 5 5 7 8 9 8 8 9 9 9 9 9 9 8 8 9 10 10 9 8 8 8 9
6 5 4 4 5 4 4 4 4 4 4 5 5 5 5 5 5 5 4 3 3 4 4 3 3 4 4 4 5 5 5 5 5 6 6 6 7 7 7 7 7 7 7 7 6 5 5 6 7 9 10 11 9 8 9 9 9 9 9 9 9 9 10 11 10 9 8 8 9
6 5 5 5 5 5 5 5 4 4 4 5 5 5 5 5 5 4 4 3 4 4 4 3 3 4 4 4 5 5 5 5 6 6 6 7 7 7 7 7 7 7 7 7 6 6 6 7 8 9 10 11 10 9 10 10 10 9 10 10 10 10 10 11 11 10 9 9 9
6 5 5 5 5 5 5 5 4 4 4 5 5 5 5 5 4 4 3 3 4 4 4 3 4 4 4 5 5 5 6 6 6 7 7 7 7 7 7 7 7 7 7 7 6 6 7 8 9 9 10 11 11 11 11 10 10 9 9 10 10 10 11 11 11 10 10 10 10
6 6 5 5 5 5 5 5 4 4 4 5 5 5 4 4 4 4 3 4 4 4 4 4 4 4 5 5 5 6 6 6 6 7 7 8 7 7 7 7 7 7 7 7 7 7 8 9 9 9 10 11 12 12 12 11 11 10 9 9 10 10 11 11 11 10 10 10 10
6 6 5 5 5 5 5 5 4 4 4 4 4 4 4 4 3 3 4 4 4 4 4 4 5 5 5 5 6 6 6 6 7 7 7 8 8 8 8 8 8 8 8 8 8 8 8 9 9 9 10 10 11 12 12 12 11 11 10 10 10 10 10 11 11 11 10 10 10
7 6 6 6 6 6 5 5 4 4 4 4 4 4 4 3 3 3 4 5 5 4 5 5 5 5 5 6 6 5 5 6 6 7 7 7 8 8 8 8 8 8 8 8 9 9 9 9 9 9 10 10 11 12 12 12 12 11 11 11 11 10 10 11 11 10 10 10 11
7 7 6 6 6 7 6 6 5 4 5 5 5 4 4 4 4 4 4 5 5 5 6 6 6 5 5 6 6 5 5 6 7 7 7 8 8 8 8 9 9 9 9 8 9 9 10 10 10 10 10 10 11 11 12 12 11 11 11 11 11 11 11 11 10 10 10 10 11
7 7 7 7 7 7 7 7 6 5 5 5 4 4 4 4 4 4 4 5 5 5 6 6 6 6 6 6 6 6 6 6 7 8 8 8 8 8 8 9 9 9 9 9 9 9 10 10 10 10 10 11 11 12 12 12 12 11 12 12 11 11 11 10 10 10 10 10 11
8 8 8 7 7 7 7 7 6 5 4 4 4 4 4 4 4 4 5 5 6 6 6 6 6 6 6 6 7 6 6 6 7 8 8 8 8 8 9 9 10 9 9 9 9 9 9 9 10 10 11 11 12 13 13 13 12 12 12 11 11 11 11 10 10 10 10 11 11
9 8 8 7 7 7 7 6 5 5 4 4 4 4 4 4 4 5 5 5 5 5 5 6 6 7 7 7 7 7 7 6 7 7 8 8 9 9 9 9 9 9 9 8 9 9 9 9 10 10 11 12 13 13 13 13 12 12 12 11 11 11 11 10 10 11 11 11 11
8 7 7 7 7 7 6 6 5 4 4 3 4 4 4 4 5 5 5 5 4 5 6 6 7 7 7 7 7 7 7 7 7 7 8 8 9 9 9 9 9 9 9 9 9 9 9 9 10 11 12 12 13 14 14 13 13 12 12 12 12 12 11 11 11 11 11 12 12
7 6 6 6 6 7 6 5 4 4 3 3 3 4 4 4 5 5 5 4 5 6 6 6 6 7 7 7 7 7 7 7 8 8 8 8 9 9 9 9 8 9 9 8 8 8 8 9 10 11 12 12 13 13 13 13 12 12 11 12 12 12 12 11 11 11 11 12 12
7 6 5 5 6 6 5 4 4 3 3 3 3 4 4 4 4 4 5 5 6 6 6 6 6 6 7 7 7 7 7 8 9 9 9 9 9 9 9 8 8 8 8 7 8 9 10 9 9 10 10 11 11 11 10 10 10 10 11 11 12 12 12 12 12 12 12 13 12
8 7 6 6 5 5 5 4 4 4 4 4 4 4 4 4 5 5 5 6 6 7 7 7 6 6 6 6 7 7 7 8 9 9 9 9 9 9 8 7 7 7 7 7 13 17 19 17 14 11 10 9 9 9 8 8 9 10 10 11 11 11 12 12 13 13 13 14 13
8 7 7 6 6 5 5 5 4 4 4 3 3 4 4 5 5 5 5 6 7 7 7 7 7 6 6 6 6 7 7 7 7 8 8 9 9 8 7 7 7 6 6 9 15 20 22 22 21 18 14 10 9 9 8 7 8 9 10 11 11 11 11 12 13 14 14 13 13
8 7 7 6 6 6 5 5 4 4 3 3 4 4 5 5 5 5 6 7 7 7 7 6 6 6 7 6 6 6 7 7 7 7 8 8 9 9 8 8 7 6 7 12 18 21 22 22 23 22 19 13 11 9 9 8 8 9 10 10 10 11 11 12 13 14 14 13 13
8 8 7 6 6 6 5 4 4 4 4 4 5 5 5 5 6 6 7 7 7 6 5 5 5 5 4 4 5 6 7 7 7 7 7 8 8 9 8 8 7 8 10 16 19 21 22 22 22 22 21 18 13 10 9 9 8 8 8 8 9 10 11 11 12 12 12 13 13
9 8 8 7 7 6 5 5 5 6 5 5 5 5 5 6 6 6 7 6 6 6 5 5 4 4 3 4 5 6 7 7 7 7 7 8 8 8 8 8 8 10 13 19 21 21 22 22 22 22 22 21 15 11 9 8 7 7 7 7 8 9 10 10 10 11 11 12 12
9 9 8 8 7 7 6 6 6 6 5 4 4 5 6 6 7 7 7 7 7 6 6 5 4 4 4 5 5 5 6 6 6 6 7 8 8 8 9 9 8 10 13 18 21 21 21 21 22 22 23 23 19 14 10 8 7 7 7 7 8 9 10 11 11 12 12 11 12
9 9 8 8 8 8 7 7 6 5 5 4 5 5 6 7 7 7 7 6 6 6 6 5 4 5 6 5 5 5 6 6 6 6 7 8 9 10 10 9 9 10 13 18 20 21 21 21 22 22 23 24 20 15 11 9 9 8 8 8 9 10 11 11 11 12 13 13 13
9 9 9 9 8 8 7 6 6 5 5 5 6 6 7 7 7 6 6 5 5 5 5 5 5 5 5 5 5 5 5 6 6 7 7 8 8 9 9 9 9 10 13 18 20 21 21 22 22 23 24 25 21 17 13 10 9 9 9 10 12 12 12 11 11 12 13 14 13
10 9 9 9 9 8 7 6 6 6 6 6 6 7 7 8 7 6 6 5 5 5 5 5 5 5 5 5 5 5 5 6 7 8 9 9 9 9 9 9 9 10 14 19 21 21 22 22 23 23 24 25 21 16 13 10 9 9 9 11 12 13 14 14 13 13 13 13 13
10 10 10 10 9 8 7 7 6 6 6 6 7 7 7 7 7 7 6 6 5 5 5 5 5 5 5 5 5 5 6 7 7 7 8 8 8 9 9 9 8 11 15 20 21 22 22 23 23 24 25 25 19 14 11 10 10 10 11 12 13 14 14 14 14 13 13 12 12
11 11 11 10 9 9 8 7 7 7 7 7 8 8 8 7 7 7 7 7 6 5 4 4 4 4 4 4 4 5 6 7 7 8 8 8 8 9 10 10 10 13 17 21 22 22 23 23 23 24 24 22 16 12 11 11 11 11 12 13 13 14 14 14 13 12 12 11 11
12 12 11 11 10 9 8 8 8 7 8 8 8 8 8 7 7 6 6 7 6 5 4 4 3 3 3 4 4 5 6 7 8 8 8 8 8 9 10 11 11 14 17 21 22 22 23 23 24 24 23 19 14 11 11 11 10 11 11 11 12 12 12 12 12 11 10 9 10
13 12 12 11 10 10 9 9 8 8 9 9 9 8 8 8 6 6 5 5 5 5 4 3 3 3 4 4 5 6 6 6 7 8 9 9 9 9 10 11 11 13 16 19 21 22 23 23 24 24 22 17 13 12 11 10 9 8 8 9 9 9 9 9 9 8 7 7 9
13 13 12 12 11 11 10 9 9 9 10 9 9 8 7 7 6 5 5 5 5 4 4 4 4 4 4 5 5 6 7 7 7 8 8 9 9 9 10 11 11 12 14 18 21 22 23 23 24 24 21 16 14 12 11 8 7 6 6 7 7 7 7 6 6 5 5 7 11
13 13 13 12 12 11 11 10 10 10 10 9 8 7 7 6 5 5 5 5 5 4 4 4 4 5 5 6 6 6 6 7 7 7 8 8 9 10 11 12 11 11 13 17 20 22 23 23 23 23 22 18 14 11 9 6 6 6 6 6 6 6 6 5 5 4 5 7 13
13 13 13 12 12 12 11 11 11 10 10 9 8 8 7 6 6 5 5 5 4 4 4 4 5 5 6 7 7 7 7 7 7 7 7 8 10 12 14 12 11 11 12 16 19 21 22 22 22 23 21 17 13 10 7 5 5 5 6 6 6 5 5 5 4 4 5 7 10
13 13 13 13 12 12 12 12 11 10 9 8 8 8 7 6 6 5 5 4 4 4 4 4 5 6 6 7 6 6 7 7 7 7 8 9 10 12 12 11 10 10 11 13 17 19 20 21 22 22 21 17 12 9 6 4 5 6 7 7 5 5 5 5 5 5 5 6 7
Wind_Direction
187 189 191 194 197 198 201 207 208 204 199 195 202 209 214 216 227 234 238 239 244 251 255 257 257 259 261 262 264 266 269 272 275 280 286 291 291 291 293 295 296 298 299 300 303 305 307 310 312 311 308 304 301 301 302 306 311 314 317 318 316 315 314 313 314 318 322 324 324
192 195 199 205 205 202 199 205 213 212 206 199 202 206 209 213 222 231 237 239 243 250 255 260 260 260 262 266 266 267 269 271 274 279 285 289 289 290 291 293 294 296 297 298 300 303 306 310 311 311 308 304 303 303 303 306 310 314 316 317 315 314 313 313 315 318 321 323 325
192 194 197 202 199 194 192 199 208 213 215 216 211 207 207 213 220 229 236 241 245 251 256 261 262 262 263 267 268 267 266 266 271 278 284 287 289 290 291 292 293 294 295 296 298 299 302 307 309 309 307 305 303 302 303 305 311 315 316 316 315 314 313 312 315 318 320 322 325
190 192 194 196 196 195 194 197 202 209 215 218 214 211 212 218 224 233 240 247 251 254 255 257 261 264 265 267 268 267 268 271 278 284 288 290 289 289 289 289 291 292 293 294 294 296 299 304 306 307 305 301 299 298 299 305 312 314 315 314 313 311 310 310 313 316 318 320 322
196 196 195 195 195 195 194 190 195 203 210 209 210 217 225 229 234 241 248 254 256 256 256 257 262 265 266 265 266 269 272 278 287 290 290 290 288 287 287 288 289 289 290 291 292 295 298 303 306 305 302 298 297 295 297 302 310 312 312 312 311 309 308 309 312 315 316 318 320
200 201 198 195 192 192 191 188 191 197 202 201 209 224 238 243 244 248 251 254 256 258 260 264 267 269 270 269 270 273 277 281 287 288 287 286 285 286 287 287 287 288 289 290 291 294 297 303 305 305 304 301 298 296 297 303 309 311 311 311 309 307 307 308 310 313 315 316 317
195 196 196 194 189 187 190 192 193 195 197 198 210 223 233 239 242 244 248 252 257 261 264 267 269 270 271 272 274 276 278 281 282 282 282 282 283 284 286 287 288 288 288 287 290 293 297 301 303 303 303 304 303 301 301 305 308 309 309 309 307 306 305 305 308 311 313 313 315
190 191 191 190 186 186 190 196 197 199 204 210 216 223 229 234 239 244 249 255 257 259 260 263 260 260 261 265 270 273 276 279 282 281 281 281 282 283 284 286 288 288 287 286 288 292 296 299 301 301 300 302 301 301 302 305 306 306 305 305 305 305 304 303 305 308 310 311 313
192 193 191 187 187 188 193 197 197 201 208 217 221 224 227 231 237 241 247 253 253 254 254 255 254 255 257 262 267 270 273 275 278 280 280 279 281 282 284 286 288 288 288 287 287 290 293 297 298 297 295 295 296 298 299 302 303 302 302 302 303 304 304 302 303 305 307 309 310
195 195 193 192 196 197 197 200 201 202 207 217 223 228 233 241 244 243 242 244 250 252 253 252 255 259 263 265 267 269 270 272 274 276 278 279 280 281 282 284 285 286 287 287 287 290 292 295 296 295 294 293 293 294 296 297 298 299 299 300 303 304 303 303 303 304 305 307 307
195 194 192 195 200 200 199 201 206 207 210 218 226 232 238 246 250 250 248 248 252 253 253 250 253 258 262 265 266 267 269 270 273 275 276 278 279 279 280 280 281 281 283 284 286 290 293 294 294 294 293 293 293 294 294 295 297 298 298 298 301 302 303 302 303 303 304 304 304
194 194 194 196 197 196 196 201 208 212 215 221 229 233 237 241 243 246 249 251 251 251 250 248 248 253 258 263 264 268 270 272 273 274 276 277 277 277 277 278 278 279 280 281 283 288 291 291 291 291 292 293 294 294 294 294 296 297 297 298 300 301 301 300 301 301 302 302 302
192 193 195 198 196 194 195 203 209 214 218 224 229 233 236 238 239 240 240 241 246 250 253 254 251 252 255 260 264 268 271 273 273 274 276 276 276 276 276 277 278 278 280 281 282 285 287 287 287 288 290 291 292 291 291 291 292 293 294 296 298 299 298 298 299 299 301 302 300
190 192 195 197 196 195 198 205 211 215 219 225 229 232 234 238 238 236 233 235 243 249 255 260 259 258 256 258 263 266 269 271 273 274 275 275 275 275 276 277 278 278 280 281 281 282 282 283 284 285 286 288 288 288 288 287 287 287 288 290 292 293 294 294 295 297 299 299 298
192 195 197 195 195 197 201 206 212 215 219 224 229 230 231 235 238 237 236 239 245 248 253 258 261 262 261 261 262 265 268 271 272 274 275 276 276 275 275 277 278 279 280 280 281 281 280 279 280 281 283 284 285 286 286 284 283 282 281 281 283 285 287 289 292 293 294 294 294
196 198 198 196 197 200 203 207 211 213 216 222 226 227 228 233 237 240 242 246 249 251 253 254 257 261 264 265 265 266 268 271 272 272 273 274 274 274 275 276 277 278 278 279 280 280 279 278 278 278 280 281 282 283 283 282 280 278 277 276 277 278 280 283 286 288 289 289 289
199 200 199 197 199 202 205 208 211 213 215 220 224 227 229 232 238 244 246 248 250 253 256 256 256 259 264 268 268 269 270 271 271 270 269 270 270 272 273 274 275 275 276 276 277 278 278 278 278 278 278 279 280 280 280 278 277 275 273 272 272 272 274 277 280 282 284 285 284
203 203 201 199 201 204 206 208 210 212 216 220 224 227 230 233 238 245 249 250 250 253 256 259 259 259 261 264 266 267 268 268 269 267 266 266 267 269 271 272 273 274 274 273 273 274 275 276 277 278 279 279 279 279 278 277 275 272 270 268 268 268 269 271 273 275 276 277 278
204 204 203 203 203 205 207 207 209 212 215 218 222 227 232 235 237 243 249 252 250 250 253 258 261 261 261 260 263 265 266 266 266 267 266 266 267 268 270 271 273 273 272 271 271 271 272 274 276 277 279 279 279 279 278 276 274 271 268 265 264 263 264 266 267 268 268 269 270
205 205 204 204 204 205 206 207 207 209 212 215 220 226 232 236 237 242 247 252 251 251 252 256 260 262 263 263 264 265 266 266 266 267 268 268 270 270 270 271 272 272 271 270 269 270 271 272 275 276 277 278 278 278 278 277 275 271 268 264 261 260 260 261 263 264 265 265 265
205 204 204 203 201 202 204 205 204 205 209 215 220 226 231 237 239 242 245 250 253 254 254 255 257 260 262 264 266 266 267 268 267 267 268 270 270 270 270 271 271 272 272 270 269 269 270 272 273 275 276 276 276 276 276 276 274 271 267 263 259 257 257 258 260 262 263 263 263
205 204 202 200 200 200 200 199 198 200 204 213 219 225 231 238 241 244 246 251 256 256 256 255 255 256 258 260 263 265 268 272 270 270 269 270 271 271 271 272 272 272 272 271 270 270 271 271 271 272 272 273 272 272 272 272 271 268 265 261 259 257 257 257 258 259 260 261 262
202 201 199 198 197 197 196 193 191 194 202 213 221 228 233 240 245 249 253 258 260 259 257 256 254 253 254 256 259 263 268 273 274 273 272 271 272 272 273 273 272 271 271 270 270 269 269 270 268 266 265 265 265 266 267 267 266 265 262 260 259 258 258 258 258 259 260 261 262
198 197 196 194 192 190 188 184 185 193 204 216 223 230 237 245 252 257 262 263 262 259 258 257 255 254 254 256 258 261 265 270 273 275 275 274 273 273 274 273 271 269 268 269 273 276 277 275 270 266 265 264 264 264 263 261 260 259 259 258 259 260 260 261 260 259 260 261 262
194 193 192 190 187 184 181 180 186 197 208 217 224 233 242 250 256 261 264 265 263 260 258 257 257 257 258 259 260 260 262 264 268 272 275 276 276 275 275 274 272 271 270 271 280 285 288 290 288 285 282 281 278 274 268 260 255 254 254 255 256 259 261 263 263 262 260 260 261
191 191 190 188 183 180 181 185 191 199 209 217 227 237 246 252 257 260 263 265 263 261 259 257 258 260 261 261 262 263 263 264 265 268 271 275 276 276 276 276 276 274 275 277 285 290 293 295 296 296 295 293 290 285 277 266 255 250 249 250 252 254 257 261 264 265 265 265 264
189 190 189 185 181 182 186 190 192 200 209 220 231 241 248 253 258 260 262 263 262 262 260 258 257 260 263 264 264 265 265 266 266 267 268 270 273 276 277 278 278 276 277 281 289 293 296 298 299 299 299 296 292 287 281 272 258 250 247 247 248 250 252 256 262 266 270 272 272
190 189 187 181 183 188 191 191 196 205 215 223 232 240 248 255 258 259 261 261 262 263 263 260 256 257 260 262 261 261 261 263 266 267 269 270 271 273 275 278 277 277 281 287 294 298 300 301 301 300 300 298 294 289 282 275 263 253 247 246 248 250 252 254 260 264 269 273 275
190 187 184 184 190 193 195 196 204 210 217 223 233 242 250 255 257 258 259 261 262 262 261 261 258 258 258 258 259 260 262 263 265 267 270 272 273 274 275 276 276 279 285 293 298 301 302 302 301 300 300 300 297 294 287 279 268 259 254 251 251 252 253 256 260 263 266 269 272
188 185 185 188 192 196 199 203 207 211 217 224 234 243 249 255 257 258 258 259 258 257 255 254 255 256 256 255 259 262 265 266 266 267 269 272 274 275 276 277 276 281 288 295 299 301 302 302 301 300 300 301 299 296 290 283 277 272 270 269 264 261 261 261 264 266 268 270 272
186 185 186 189 194 199 203 205 208 211 217 226 235 242 247 252 254 255 255 255 255 254 254 253 254 255 256 256 259 262 264 267 268 269 270 271 274 276 277 279 278 282 288 295 299 301 302 302 302 302 302 302 301 298 292 287 285 283 282 281 277 274 272 270 270 271 272 274 276
186 186 187 191 197 202 204 206 207 212 219 227 234 240 245 248 250 251 252 253 255 257 258 258 258 259 261 264 263 263 264 266 269 270 271 271 274 276 279 282 281 284 289 296 300 302 304 304 304 304 304 304 302 300 296 292 289 287 285 283 281 279 277 276 275 275 275 276 278
187 187 189 194 199 203 205 206 209 214 220 227 233 238 242 246 250 251 252 253 252 252 252 253 254 256 260 263 265 266 267 268 269 271 274 276 278 280 282 285 284 287 292 298 302 304 305 306 306 305 305 306 304 302 299 295 292 289 287 285 284 283 282 280 280 278 278 277 278
189 190 192 197 200 203 205 207 209 213 220 227 233 237 240 245 249 252 252 251 248 245 243 243 244 246 248 251 256 262 267 272 274 275 276 278 281 282 285 286 285 290 296 300 304 306 307 307 307 307 307 308 306 304 301 297 294 290 288 287 287 288 288 287 284 281 279 277 278
191 192 195 199 201 203 205 207 210 214 219 226 233 237 239 241 245 247 250 251 251 248 244 242 240 241 245 248 251 258 265 273 276 277 278 279 282 284 286 287 286 292 298 302 305 307 308 309 309 309 310 310 308 304 300 297 294 291 290 289 290 291 291 290 287 284 281 280 281
193 194 196 199 201 203 205 207 209 213 219 225 231 235 238 241 242 244 246 251 253 252 250 247 246 248 252 256 257 260 264 269 274 278 281 282 284 286 288 290 290 294 299 303 306 308 310 311 311 312 312 311 307 303 300 297 295 294 294 294 293 293 293 292 291 290 289 288 286
194 195 196 198 201 203 205 206 208 213 219 224 228 231 235 239 241 242 244 246 248 250 250 249 248 250 254 258 261 263 264 266 272 277 282 285 286 287 289 292 292 295 299 304 307 310 312 313 313 314 313 311 307 303 302 300 301 301 302 300 299 299 299 300 301 301 300 297 298
195 195 196 197 200 202 203 204 208 213 218 222 225 228 232 235 237 240 241 241 240 242 244 246 246 247 250 254 260 264 266 266 269 274 279 283 285 286 289 291 292 295 299 305 309 311 313 314 314 314 314 311 308 307 306 306 308 310 311 311 311 313 316 317 319 316 312 310 321
195 195 196 197 199 201 202 204 208 212 216 220 224 227 229 231 233 236 238 237 233 234 237 243 245 247 251 257 264 269 272 271 270 273 277 281 283 287 290 292 293 296 300 305 309 312 313 315 314 315 315 313 312 311 311 310 313 316 320 325 329 332 333 333 331 327 324 324 334
194 194 195 197 198 200 202 205 209 211 213 216 220 224 227 228 231 235 237 235 230 229 233 239 245 250 255 262 268 273 276 278 276 275 276 279 283 289 293 295 296 297 300 304 308 311 313 315 314 316 317 316 316 315 314 312 317 325 333 340 345 348 347 343 339 336 335 335 338
192 193 194 196 197 199 201 205 209 210 211 213 217 221 224 227 231 234 234 233 231 231 234 240 247 252 257 264 269 274 278 281 281 279 279 281 285 290 293 295 295 295 297 301 306 310 313 315 316 318 320 320 319 319 318 314 326 336 342 349 355 357 352 344 342 342 343 342 338